sat.trackr.live / text

‹ back to catalog

STARLINK-4076

NORAD 52667 · 2022-053M

PAYLOAD ACTIVE UNKNOWN

§ Identity

Operator
Country
US
Launch date
2022-05-18
Launch site
AFETR
Launch vehicle
Mass (kg)
RCS (m²)

Purposes: comms

External: N2YO · Heavens-Above · Gunter

§ Orbital elements

Epoch: 2026-09-19T22:33:56.153664Z

Period
95.44 min
Inclination
53.1619°
Eccentricity
0.0001025
Mean motion
15.08837569 rev/d
Perigee alt
539.0 km
Apogee alt
540.5 km
Semi-major
6,917.9 km
B*
4.6039e-5
RAAN
1.4389°
Arg perigee
84.6829°
Mean anomaly
275.4280°
Rev number
24,037

§ Raw data

STARLINK-40761 52667U 22053M   26262.94023326  .00000445  00000+0  46039-4 0  99932 52667  53.1619   1.4389 0001025  84.6829 275.4280 15.08837569240379

JSON: /api/v1/satellites/52667 · /tle

For live sub-satellite position, see the globe view (requires WebGL).

§ Visibility from observer

Set your observer location to see the next 7 days of passes ≥ 10°. The values pass through the URL so the page stays shareable.

No JS? Fill the form by hand. The geolocation button needs JavaScript.